Regional Weather Roundup
Issued by NWS Goodland, KS

Home | Current Version | Previous Version | Graphics & Text | Print | Product List | Glossary On
Versions: 1 2 3 4 5 6 7 8 9 10 11 12 13 14 15 16 17 18 19 20 21 22 23 24 25 26 27 28 29 30 31 32 33 34 35 36 37 38 39 40 41 42 43 44 45 46 47 48 49 50
000
ASUS43 KGLD 210259
RWRGLD

GOODLAND FORECAST AREA HOURLY WEATHER ROUNDUP
NATIONAL WEATHER SERVICE GOODLAND KS
900 PM MDT MON APR 20 2015

...OFFICIAL OBSERVATIONS...

CITY           SKY/WX    TMP DP  RH WIND       PRES   REMARKS
GOODLAND KS    CLEAR     44  34  67 NW3       29.93R
HILL CITY KS   CLEAR     46  34  62 CALM      29.90R
IMPERIAL NEB   CLEAR     41  28  60 W7        29.89R
MCCOOK NEB     CLEAR     46  29  51 MISG      29.88R
AKRON CO       PTCLDY    44  25  47 CALM      29.93R
BURLINGTON CO  MOCLDY    42  33  70 W5        29.95R
LIMON CO       PTCLDY    43  31  62 NW5       29.98R
$$

...UNOFFICIAL OBSERVATIONS...

CITY           SKY/WX    TMP DP  RH WIND       PRES   REMARKS
COLBY KS       CLEAR     48  34  57 N3        29.93R
GOVE KS          N/A     45  32  60 MISG        N/A
LENORA KS        N/A     49  32  52 MISG        N/A
NORTON KS      CLEAR     43  27  52 SW5       29.88R
SHARON SPRINGS   N/A     49  40  71 MISG        N/A
TRIBUNE KS     PTCLDY    46  41  81 SW7       29.95R
KIT CARSON CO    N/A     51  34  53 MISG        N/A
YUMA CO          N/A     42  30  62 CALM        N/A
$$


USA.gov is the U.S. government's official web portal to all federal, state and local government web resources and services.